Regional Weather Roundup
Issued by NWS

Home | Current Version | Previous Version | Text Only | Print | Product List | Glossary On
Versions: 1 2 3 4 5 6 7 8 9 10 11 12 13 14 15 16 17 18 19 20 21 22 23 24 25 26 27 28 29 30 31 32 33 34 35 36 37 38 39 40 41 42 43 44 45 46 47 48 49 50
009
ASUS46 KSTO 092309
RWRCA

NORTHERN AND CENTRAL CA REGIONAL WEATHER ROUNDUP
NATIONAL WEATHER SERVICE SACRAMENTO CA
300 PM PST TUE FEB 09 2016

NOTE: FAIR INDICATES FEW OR NO CLOUDS BELOW 12,000 FEET WITH NO
SIGNIFICANT WEATHER AND/OR OBSTRUCTIONS TO VISIBILITY.

CAZ001-003-100000-
NORTHWEST AREA

CITY           SKY/WX    TMP DP  RH WIND       PRES   REMARKS
CRESCENT CITY  PTSUNNY   64  44  48 S13       30.19F
ARCATA         NOT AVBL
SHELTER COVE   NOT AVBL
UKIAH          PTSUNNY   74  46  36 S3        30.15F
$$

CAZ006-505>513-100000-
BAY AREA

CITY           SKY/WX    TMP DP  RH WIND       PRES   REMARKS
SANTA ROSA     PTSUNNY   72  52  49 SE5       30.14F
SAN RAFAEL     N/A       MM  MM  MM MISG
NAPA           PTSUNNY   71  47  42 E9        30.14F
CONCORD        PTSUNNY   69  48  47 NE8       30.15F
OAKLAND CITY   N/A       70  MM  MM MISG
OAKLAND        PTSUNNY   68  46  45 W8        30.14S
SAN FRAN CITY  N/A       69  MM  49 MISG
SAN FRAN ARPT  PTSUNNY   65  51  60 N6        30.14S
LIVERMORE      MOSUNNY   67  50  54 E12       30.14S
HAYWARD        MOSUNNY   67  49  52 W12       30.13S
REDWOOD CITY   N/A       MM  MM  MM MISG
MOFFETT ARPT   MOSUNNY   68  49  50 NW8       30.13S
SAN JOSE ARPT  PTSUNNY   72  50  45 NW8       30.12R
$$
CAZ034-037-514>518-100000-
CENTRAL COAST

CITY           SKY/WX    TMP DP  RH WIND       PRES   REMARKS
WATSONVILLE    SUNNY     80  47  31 S3        30.11S
SALINAS        SUNNY     81  42  25 SE13      30.09S
MONTEREY       SUNNY     80  39  23 W7        30.11R
PT PIEDRAS BLS NOT AVBL
SAN LUIS OBISP PTSUNNY   83  49  30 NW8       30.07F
SANTA MARIA    MOSUNNY   86  40  19 W5        30.08F
$$
CAZ015-016-100000-
NORTHERN SACRAMENTO VALLEY

CITY           SKY/WX    TMP DP  RH WIND       PRES   REMARKS
REDDING        PTSUNNY   74  37  26 CALM      30.16S
RED BLUFF      PTSUNNY   74  38  27 CALM      30.17S
OROVILLE       MOSUNNY   69  47  45 W6        30.17F
$$
CAZ016>018-100000-
SOUTHERN SACRAMENTO VALLEY

CITY           SKY/WX    TMP DP  RH WIND       PRES   REMARKS
AUBURN         MOSUNNY   72  45  37 W7        30.19S
LINCOLN        FAIR      70  43  37 W7        30.15S
MARYSVILLE     MOSUNNY   71  48  43 NW7       30.16F
PLACERVILLE    FAIR      72  39  30 NW3       30.22F
SAC INTL ARPT  PTSUNNY   69  51  52 NW8       30.15F
MATHER AIRPORT MOSUNNY   73  43  33 SW3       30.15S
DOWNTOWN SAC   N/A       73  MM  MM MISG
SAC EXEC ARPT  MOSUNNY   71  47  42 NW8       30.16R
VACAVILLE      MOSUNNY   73  48  41 CALM      30.17F
TRAVIS AFB     NOT AVBL
$$
CAZ019>021-100000-
SAN JOAQUIN VALLEY

CITY           SKY/WX    TMP DP  RH WIND       PRES   REMARKS
STOCKTON       MOSUNNY   73  46  38 CALM      30.14F
MODESTO        MOSUNNY   72  47  40 VRB3      30.14F
MERCED         MOSUNNY   69  51  52 SW3       30.14F
LEMOORE        PTSUNNY   75  46  35 CALM      30.15F
FRESNO         PTSUNNY   76  42  29 E5        30.14F
HANFORD        MOSUNNY   73  48  41 SE3       30.15F
PORTERVILLE    SUNNY    N/A N/A N/A NW5       30.15F
BAKERSFIELD    SUNNY     78  40  25 N10       30.15F
$$
CAZ011-012-071-100000-
NORTHERN MOUNTAINS

CITY           SKY/WX    TMP DP  RH WIND       PRES   REMARKS
YREKA          CLOUDY    62  35  36 CALM      30.23R
MOUNT SHASTA   CLOUDY    67  32  27 CALM      30.25R
ALTURAS        MOSUNNY   61  34  36 S12       30.29F
$$
CAZ011-012-071-100000-
SIERRA NEVADA MTNS

CITY           SKY/WX    TMP DP  RH WIND       PRES   REMARKS
BLUE CANYON    MOSUNNY   64  19  17 S7        30.34F
TRUCKEE        PTSUNNY   55  30  38 CALM      30.36F
TAHOE VLY ARPT MOSUNNY   51  28  41 NE6       30.37F
MAMMOTH LAKES  FAIR      57  23  26 SE5       30.43F
$$




USA.gov is the U.S. government's official web portal to all federal, state and local government web resources and services.